Location: Hopewell Observatory
(38.8698°N, 77.6988°W)
Time: 15:56:12
(UTC-04:00)

Amateur Radio Satellites - All Passes

Search period start: 26 July 2016 15:26
Search period end: 27 July 2016 15:26
Location: Hopewell Observatory, 38.8698°N, 77.6988°W

Satellite Date Start Highest point End Downlink Frequencies (MHz)
Time Altitude Azimuth
CUSAT 1 26 Jul 15:34:24 15:37:23 68° 261° (W) 15:41:06 437.405
GONETS M04 26 Jul 15:35:17 15:43:36 53° 90° (E) 15:51:58
SWISSCUBE 26 Jul 15:36:17 15:41:04 84° 103° (ESE) 15:45:49 437.505
DANDE 26 Jul 15:49:31 15:51:58 35° 79° (ENE) 15:54:37 436.750
BEESAT 26 Jul 15:57:50 16:02:34 65° 286° (WNW) 16:07:15 436.000
SO-50 26 Jul 16:17:21 16:19:41 14° 40° (NE) 16:21:59 436.795
KKS-1 26 Jul 16:18:25 16:22:00 23° 95° (E) 16:25:34 437.445
ITUPSAT 1 26 Jul 16:20:37 16:25:03 38° 290° (WNW) 16:29:26 437.325
PHONESAT 2.4 26 Jul 16:30:30 16:31:02 10° 145° (SE) 16:31:35 2401.200-2431.200
HORYU 2 26 Jul 16:39:03 16:42:57 30° 69° (ENE) 16:46:52 437.375
AO-85 26 Jul 16:42:32 16:44:16 11° 322° (NW) 16:45:59 145.980
MOZHAYETS 4 26 Jul 16:46:07 16:50:35 51° 100° (E) 16:55:01
Cosmos 2499 26 Jul 16:49:01 16:57:54 76° 278° (W) 17:06:39 435.465 / 435.565
AO-7 26 Jul 16:51:59 16:59:51 45° 260° (W) 17:07:47 29.400- 29.500
ITAMSAT 1 26 Jul 16:53:02 16:55:03 12° 270° (W) 16:57:06 435.822/435.867
STARS 26 Jul 16:59:04 17:03:03 31° 97° (E) 17:06:59 437.465
NOAA 15 26 Jul 17:07:48 17:10:50 16° 62° (ENE) 17:13:52 137.62
RS-15 26 Jul 17:10:39 17:23:00 77° 244° (WSW) 17:35:06 29.354- 29.394
NOAA 18 26 Jul 17:14:21 17:17:22 15° 60° (ENE) 17:20:23 137.9125
SWISSCUBE 26 Jul 17:17:22 17:18:08 10° 300° (WNW) 17:18:54 437.505
GONETS M04 26 Jul 17:33:13 17:40:43 32° 289° (WNW) 17:48:19
KKS-1 26 Jul 17:54:37 17:58:33 31° 291° (WNW) 18:02:28 437.445
GOMX 1 26 Jul 17:55:45 17:58:38 18° 66° (ENE) 18:01:35 467.674
SO-50 26 Jul 17:56:12 18:00:51 86° 235° (SW) 18:05:19 436.795
Cubesat XI-IV 26 Jul 17:58:44 18:03:33 35° 68° (ENE) 18:08:23 437.490
CUBESAT XI-V 26 Jul 18:03:21 18:07:42 40° 98° (E) 18:12:02 437.345
PHONESAT 2.4 26 Jul 18:04:05 18:07:04 50° 159° (SSE) 18:10:04 2401.200-2431.200
HORYU 2 26 Jul 18:15:53 18:19:29 24° 265° (W) 18:23:07 437.375
CUTE-I 26 Jul 18:22:08 18:27:23 57° 72° (ENE) 18:32:39 437.470
MOZHAYETS 4 26 Jul 18:24:41 18:27:17 15° 296° (WNW) 18:29:53
BRITE-PL 26 Jul 18:26:26 18:30:35 81° 258° (WSW) 18:34:46 437.365/2234.400
STARS 26 Jul 18:35:44 18:39:13 23° 293° (WNW) 18:42:40 437.465
LilacSat-2 26 Jul 18:41:01 18:44:53 86° 76° (ENE) 18:48:48 437.200
NOAA 15 26 Jul 18:44:50 18:50:02 65° 258° (WSW) 18:55:15 137.62
Cosmos 2499 26 Jul 18:47:51 18:52:28 15° 298° (WNW) 18:57:03 435.465 / 435.565
NOAA 18 26 Jul 18:51:48 18:57:19 76° 256° (WSW) 19:02:54 137.9125
BEESAT 3 26 Jul 19:07:07 19:11:00 74° 120° (ESE) 19:14:57 437.485
HO-68 26 Jul 19:11:48 19:17:48 30° 62° (ENE) 19:23:49 435.675
BEESAT 2 26 Jul 19:12:01 19:15:44 41° 116° (ESE) 19:19:29 435.950
STRAND 1 26 Jul 19:16:30 19:19:08 14° 91° (E) 19:21:44 437.568
RS-15 26 Jul 19:26:27 19:33:21 17° 264° (W) 19:40:12 29.354- 29.394
DOVE 4 26 Jul 19:28:26 19:32:40 89° 86° (E) 19:37:10 437.250
GOMX 1 26 Jul 19:32:43 19:36:28 33° 263° (W) 19:40:22 467.674
CANX-2 26 Jul 19:38:33 19:42:11 28° 70° (ENE) 19:45:50 2200.000
Cubesat XI-IV 26 Jul 19:39:02 19:43:36 28° 264° (W) 19:48:14 437.490
PHONESAT 2.4 26 Jul 19:40:30 19:43:34 64° 355° (N) 19:46:38 2401.200-2431.200
PCSat 26 Jul 19:41:16 19:46:33 56° 113° (ESE) 19:51:52 145.827
CUBESAT XI-V 26 Jul 19:41:33 19:44:47 19° 294° (WNW) 19:47:59 437.345
YUBILEINY 26 Jul 19:44:32 19:49:46 17° 62° (ENE) 19:54:57 435.215
CINEMA 3 26 Jul 19:45:05 19:49:13 37° 71° (ENE) 19:53:32 145.822/145.860
CUTE 1.7 + AOD 2 26 Jul 19:51:51 19:55:43 34° 72° (ENE) 19:59:35 437.475
CUTE-I 26 Jul 20:04:22 20:07:45 17° 268° (W) 20:11:10 437.470
O/OREOS (USA 219) 26 Jul 20:11:45 20:14:30 16° 100° (E) 20:17:16 437.305
SEEDS 26 Jul 20:31:50 20:36:02 70° 76° (ENE) 20:40:16 437.485
UWE-3 26 Jul 20:36:09 20:39:59 27° 69° (ENE) 20:43:54 435.000/436.395/437.385
FUNcube-1 26 Jul 20:38:34 20:41:35 18° 66° (ENE) 20:44:39 145.935
ZACube-1 26 Jul 20:38:56 20:42:09 19° 66° (ENE) 20:45:22 437.345
COMPASS 1 26 Jul 20:44:52 20:49:01 69° 76° (ENE) 20:53:11 437.405
BEESAT 3 26 Jul 20:47:42 20:49:10 12° 317° (NW) 20:50:39 437.485
BEESAT 2 26 Jul 20:50:59 20:53:44 18° 313° (NW) 20:56:31 435.950
STRAND 1 26 Jul 20:53:39 20:58:42 63° 287° (WNW) 21:03:42 437.568
CUBEBUG 2 26 Jul 20:56:06 21:00:36 65° 75° (ENE) 21:05:17 437.445
HO-68 26 Jul 20:58:11 21:05:08 53° 259° (W) 21:12:09 435.675
Cosmos 2491 26 Jul 21:05:13 21:12:14 28° 83° (E) 21:19:15 435.465 / 435.565
AIST 2 26 Jul 21:07:22 21:11:03 33° 114° (ESE) 21:14:46 435.215
M-CUBED/EXP-1 PRIME 26 Jul 21:12:17 21:15:04 20° 61° (ENE) 21:17:59 437.505
AAUSAT CUBESAT 2 26 Jul 21:13:50 21:17:59 68° 259° (W) 21:22:08 437.432
CANX-2 26 Jul 21:14:35 21:18:00 23° 265° (W) 21:21:25 2200.000
PRISM 26 Jul 21:15:52 21:19:26 28° 97° (E) 21:22:58 437.425
PHONESAT 2.4 26 Jul 21:17:06 21:20:12 82° 12° (NNE) 21:23:17 2401.200-2431.200
Oscar 11 26 Jul 21:20:35 21:24:49 53° 74° (ENE) 21:29:04 145.826/435.025
CINEMA 3 26 Jul 21:23:15 21:26:29 19° 268° (W) 21:29:51 145.822/145.860
PCSat 26 Jul 21:26:09 21:30:17 22° 311° (NW) 21:34:28 145.827
CUTE 1.7 + AOD 2 26 Jul 21:28:36 21:31:37 19° 266° (W) 21:34:39 437.475
ISS 26 Jul 21:29:33 21:32:37 40° 136° (SE) 21:35:42 145.825
AUBIESAT-1 26 Jul 21:38:11 21:41:33 31° 65° (ENE) 21:45:10 437.475
YUBILEINY 26 Jul 21:39:03 21:47:57 85° 83° (E) 21:56:46 435.215
DELFI C3 26 Jul 21:41:56 21:45:37 37° 73° (ENE) 21:49:17 145.870
O/OREOS (USA 219) 26 Jul 21:49:16 21:53:30 42° 296° (WNW) 21:57:47 437.305
Cosmos 2504 26 Jul 21:49:55 21:57:09 33° 71° (ENE) 22:03:53 435.465 / 435.565
AO-85 26 Jul 21:53:05 21:54:15 11° 38° (NE) 21:55:24 145.980
HUMSAT D 26 Jul 21:58:01 22:01:43 28° 70° (ENE) 22:05:26 437.325/437.525
UWE-3 26 Jul 22:12:27 22:16:20 28° 265° (W) 22:20:19 435.000/436.395/437.385
FUNcube-1 26 Jul 22:13:10 22:17:27 43° 262° (W) 22:21:50 145.935
ZACube-1 26 Jul 22:13:51 22:18:05 40° 262° (W) 22:22:25 437.345
UNISAT 6 26 Jul 22:14:01 22:15:04 11° 89° (E) 22:16:07 437.425
ESTCUBE 1 26 Jul 22:28:29 22:29:50 11° 62° (ENE) 22:31:11 437.505/2401.250
CUBEBUG 2 26 Jul 22:36:14 22:37:41 11° 271° (W) 22:39:09 437.445
M-CUBED/EXP-1 PRIME 26 Jul 22:46:07 22:49:21 29° 259° (W) 22:52:52 437.505
AIST 2 26 Jul 22:46:18 22:49:34 23° 311° (NW) 22:52:53 435.215
VELOX 1 26 Jul 22:48:30 22:48:49 10° 62° (ENE) 22:49:09 145.980
CUBEBUG 1 26 Jul 22:49:42 22:51:21 12° 63° (ENE) 22:52:59 437.445
ANTELSAT 26 Jul 22:50:02 22:54:00 28° 95° (E) 22:57:52 437.575/2403.000
PRISM 26 Jul 22:51:27 22:54:34 21° 292° (WNW) 22:57:40 437.425
PHONESAT 2.4 26 Jul 22:53:51 22:56:32 27° 207° (SSW) 22:59:12 2401.200-2431.200
Oscar 11 26 Jul 22:59:26 23:01:15 12° 269° (W) 23:03:03 145.826/435.025
Cosmos 2491 26 Jul 22:59:56 23:08:27 58° 282° (WNW) 23:17:03 435.465 / 435.565
ISS 26 Jul 23:06:26 23:09:08 24° 332° (NNW) 23:11:52 145.825
AUBIESAT-1 26 Jul 23:13:31 23:16:08 18° 263° (W) 23:18:52 437.475
50 SAT 26 Jul 23:14:13 23:16:39 17° 68° (ENE) 23:19:05 437.505
DELFI C3 26 Jul 23:18:20 23:20:36 15° 267° (W) 23:22:52 145.870
AISAT 26 Jul 23:29:20 23:33:10 30° 70° (ENE) 23:37:02 437.250
AO-85 26 Jul 23:31:10 23:35:33 82° 58° (ENE) 23:39:34 145.980
DX 1 26 Jul 23:31:22 23:34:43 22° 67° (ENE) 23:38:06 434.975-435.025
TIGRISAT 26 Jul 23:31:23 23:36:02 76° 102° (ESE) 23:40:33 435.000
HUMSAT D 26 Jul 23:33:52 23:37:18 23° 265° (W) 23:40:45 437.325/437.525
DUCHIFAT 1 26 Jul 23:36:03 23:36:36 10° 90° (E) 23:37:09 145.980
YUBILEINY 26 Jul 23:38:05 23:43:32 18° 282° (WNW) 23:48:57 435.215
Cosmos 2504 26 Jul 23:43:04 23:50:41 46° 272° (W) 23:57:46 435.465 / 435.565
UKube-1 26 Jul 23:45:46 23:49:18 25° 68° (ENE) 23:52:50 .
UNISAT 6 26 Jul 23:47:37 23:52:15 68° 285° (WNW) 23:56:44 437.425
QB50P1 26 Jul 23:51:23 23:54:27 19° 94° (E) 23:57:29 145.935-145.965
POPSAT HIP 1 26 Jul 23:57:34 00:00:54 22° 95° (E) 00:04:13 437.405
ESTCUBE 1 27 Jul 00:01:33 00:06:02 70° 258° (WSW) 00:10:31 437.505/2401.250
AIST 1 27 Jul 00:09:43 00:12:39 17° 73° (ENE) 00:15:34
QB50P2 27 Jul 00:17:50 00:21:53 40° 98° (E) 00:25:54 145.880/145.840
SPROUT 27 Jul 00:19:22 00:23:26 46° 73° (ENE) 00:27:33 437.525
VELOX 1 27 Jul 00:20:16 00:24:38 75° 258° (WSW) 00:29:02 145.980
POLYITAN 1 27 Jul 00:20:27 00:24:33 41° 99° (E) 00:28:34 437.675
CUBEBUG 1 27 Jul 00:22:51 00:27:05 60° 259° (W) 00:31:22 437.445
ANTELSAT 27 Jul 00:26:43 00:30:36 27° 291° (WNW) 00:34:24 437.575/2403.000
50 SAT 27 Jul 00:46:53 00:50:03 27° 263° (W) 00:53:15 437.505
JAS-2 27 Jul 00:49:17 00:53:45 26° 96° (E) 00:58:31 435.910
NANOSAT C BR1 27 Jul 01:03:56 01:08:11 65° 285° (WNW) 01:12:23 145.865
AISAT 27 Jul 01:06:14 01:09:39 22° 265° (W) 01:13:05 437.250
DX 1 27 Jul 01:06:57 01:10:44 30° 263° (W) 01:14:34 434.975-435.025
DUCHIFAT 1 27 Jul 01:08:26 01:12:40 61° 286° (WNW) 01:16:51 145.980
TIGRISAT 27 Jul 01:10:47 01:12:01 11° 299° (WNW) 01:13:14 435.000
TISAT 1 27 Jul 01:16:24 01:20:25 47° 73° (ENE) 01:24:28 437.305
UKube-1 27 Jul 01:21:38 01:25:14 26° 264° (W) 01:28:52 .
BUGSAT 1 27 Jul 01:24:40 01:28:57 87° 102° (ESE) 01:33:13 437.445
QB50P1 27 Jul 01:26:25 01:30:17 34° 289° (WNW) 01:34:08 145.935-145.965
BEESAT 27 Jul 01:27:55 01:30:14 14° 62° (ENE) 01:32:33 436.000
POPSAT HIP 1 27 Jul 01:32:56 01:36:40 30° 290° (WNW) 01:40:23 437.405
AIST 1 27 Jul 01:46:22 01:50:21 36° 269° (W) 01:54:20
GONETS M04 27 Jul 01:47:35 01:54:27 25° 67° (ENE) 02:01:18
ITUPSAT 1 27 Jul 01:49:14 01:52:53 22° 66° (ENE) 01:56:31 437.325
Oscar 19 27 Jul 01:51:01 01:55:19 26° 95° (E) 01:59:36 437.125/150
QB50P2 27 Jul 01:54:35 01:57:21 17° 294° (WNW) 02:00:06 145.880/145.840
POLYITAN 1 27 Jul 01:57:15 01:59:59 17° 294° (WNW) 02:02:42 437.675
SPROUT 27 Jul 01:57:26 01:59:37 14° 268° (W) 02:01:50 437.525
ISS 27 Jul 02:23:07 02:24:10 11° 13° (NNE) 02:25:14 145.825
JAS-2 27 Jul 02:34:05 02:38:54 36° 290° (WNW) 02:44:04 435.910
SWISSCUBE 27 Jul 02:41:13 02:46:00 84° 74° (ENE) 02:50:49 437.505
Cosmos 2499 27 Jul 02:43:18 02:50:23 36° 72° (ENE) 02:56:59 435.465 / 435.565
TISAT 1 27 Jul 02:54:19 02:56:18 13° 268° (W) 02:58:19 437.305
BEESAT 27 Jul 03:02:42 03:07:27 65° 258° (WSW) 03:12:13 436.000
AO-7 27 Jul 03:06:40 03:08:32 11° 88° (E) 03:10:24 29.400- 29.500
Gurwin Techsat 1B 27 Jul 03:07:43 03:13:01 63° 102° (ESE) 03:18:16 435.225
KKS-1 27 Jul 03:15:45 03:18:52 19° 66° (ENE) 03:22:00 437.445
ITAMSAT 1 27 Jul 03:24:31 03:28:58 28° 96° (E) 03:33:23 435.822/435.867
BEESAT 3 27 Jul 03:25:42 03:29:11 28° 51° (NE) 03:32:39 437.485
ITUPSAT 1 27 Jul 03:25:59 03:30:27 38° 262° (W) 03:34:56 437.325
Oscar 19 27 Jul 03:29:59 03:34:40 35° 291° (WNW) 03:39:20 437.125/150
BEESAT 2 27 Jul 03:31:33 03:34:29 19° 48° (NE) 03:37:24 435.950
GONETS M04 27 Jul 03:43:17 03:52:01 70° 267° (W) 04:00:46
MOZHAYETS 4 27 Jul 03:46:31 03:50:53 42° 72° (ENE) 03:55:15
STARS 27 Jul 03:54:45 03:58:17 24° 68° (ENE) 04:01:50 437.465
ISS 27 Jul 03:58:18 04:01:21 36° 32° (NNE) 04:04:23 145.825
JUGNU 27 Jul 04:17:39 04:19:28 11° 181° (S) 04:21:17 437.505
PCSat 27 Jul 04:30:29 04:35:28 35° 54° (NE) 04:40:24 145.827
Cosmos 2499 27 Jul 04:36:24 04:43:29 40° 273° (W) 04:50:08 435.465 / 435.565
CUSAT 1 27 Jul 04:36:37 04:40:52 52° 279° (W) 04:44:11 437.405
Gurwin Techsat 1B 27 Jul 04:49:11 04:52:23 17° 298° (WNW) 04:55:37 435.225
KKS-1 27 Jul 04:51:01 04:55:08 38° 261° (W) 04:59:18 437.445
AO-7 27 Jul 04:54:18 05:02:39 70° 105° (ESE) 05:10:55 29.400- 29.500
DANDE 27 Jul 04:55:07 05:01:04 79° 99° (E) 05:05:28 436.750
BEESAT 3 27 Jul 05:03:35 05:06:44 23° 248° (WSW) 05:09:51 437.485
ITAMSAT 1 27 Jul 05:03:48 05:08:24 33° 292° (WNW) 05:12:58 435.822/435.867
CUBESAT XI-V 27 Jul 05:05:26 05:09:35 34° 71° (ENE) 05:13:45 437.345
BEESAT 2 27 Jul 05:08:43 05:12:27 38° 245° (WSW) 05:16:09 435.950
MOZHAYETS 4 27 Jul 05:25:06 05:28:12 18° 267° (W) 05:31:19
RS-15 27 Jul 05:25:10 05:31:59 18° 97° (E) 05:38:57 29.354- 29.394
AIST 2 27 Jul 05:30:08 05:33:01 18° 47° (NE) 05:35:55 435.215
STARS 27 Jul 05:30:43 05:34:30 28° 263° (W) 05:38:19 437.465
ISS 27 Jul 05:35:02 05:37:38 22° 228° (SW) 05:40:13 145.825
GONETS M04 27 Jul 05:44:52 05:47:05 11° 286° (WNW) 05:49:18
HORYU 2 27 Jul 06:06:54 06:11:23 71° 102° (ESE) 06:15:49 437.375
PCSat 27 Jul 06:14:01 06:18:45 31° 251° (WSW) 06:23:26 145.827
Cubesat XI-IV 27 Jul 06:18:31 06:21:25 15° 91° (E) 06:24:17 437.490
LilacSat-2 27 Jul 06:18:58 06:19:05 10° 90° (E) 06:19:11 437.200
O/OREOS (USA 219) 27 Jul 06:21:20 06:25:12 27° 61° (ENE) 06:29:04 437.305
STRAND 1 27 Jul 06:30:52 06:34:29 20° 64° (ENE) 06:38:05 437.568
BRITE-PL 27 Jul 06:31:09 06:35:38 36° 98° (E) 06:40:26 437.365/2234.400
SRMSAT 27 Jul 06:34:03 06:35:48 11° 181° (S) 06:37:33 437.500
CUTE-I 27 Jul 06:41:04 06:45:25 25° 95° (E) 06:49:44 437.470
CUBESAT XI-V 27 Jul 06:43:29 06:47:01 21° 266° (W) 06:50:33 437.345
AO-7 27 Jul 06:48:06 06:54:43 27° 304° (WNW) 07:01:18 29.400- 29.500
NOAA 15 27 Jul 07:01:09 07:06:18 52° 100° (E) 07:11:26 137.62
AIST 2 27 Jul 07:07:44 07:11:45 47° 244° (WSW) 07:15:44 435.215
NOAA 18 27 Jul 07:15:15 07:20:39 51° 101° (E) 07:26:00 137.9125
Cosmos 2491 27 Jul 07:18:28 07:21:34 12° 59° (ENE) 07:24:41 435.465 / 435.565
DOVE 4 27 Jul 07:28:04 07:32:36 30° 96° (E) 07:37:12 437.250
RS-15 27 Jul 07:30:56 07:42:20 82° 117° (ESE) 07:54:25 29.354- 29.394
GOMX 1 27 Jul 07:33:52 07:38:57 72° 102° (ESE) 07:44:18 467.674
CINEMA 3 27 Jul 07:43:07 07:44:43 11° 89° (E) 07:46:19 145.822/145.860
HORYU 2 27 Jul 07:46:02 07:47:18 11° 298° (WNW) 07:48:36 437.375
LilacSat-2 27 Jul 07:49:55 07:53:41 50° 285° (WNW) 07:57:23 437.200
Cubesat XI-IV 27 Jul 07:56:36 08:01:55 65° 287° (WNW) 08:07:11 437.490
O/OREOS (USA 219) 27 Jul 08:00:41 08:04:31 27° 257° (WSW) 08:08:22 437.305
PRISM 27 Jul 08:04:49 08:07:35 18° 67° (ENE) 08:10:22 437.425
STRAND 1 27 Jul 08:08:16 08:13:15 50° 260° (W) 08:18:16 437.568
SO-50 27 Jul 08:08:46 08:13:20 42° 115° (ESE) 08:17:56 436.795
BRITE-PL 27 Jul 08:10:02 08:13:57 25° 291° (WNW) 08:18:04 437.365/2234.400
SEEDS 27 Jul 08:18:53 08:20:39 12° 91° (E) 08:22:25 437.485
CUTE-I 27 Jul 08:20:36 08:25:32 39° 291° (WNW) 08:30:25 437.470
HO-68 27 Jul 08:27:23 08:33:47 33° 97° (E) 08:40:06 435.675
COMPASS 1 27 Jul 08:31:07 08:32:33 12° 91° (E) 08:33:59 437.405
NOAA 15 27 Jul 08:42:00 08:45:40 19° 296° (WNW) 08:49:19 137.62
YUBILEINY 27 Jul 08:45:15 08:50:54 19° 79° (ENE) 08:56:33 435.215
CUBEBUG 2 27 Jul 08:49:39 08:52:33 16° 91° (E) 08:55:24 437.445
NOAA 18 27 Jul 08:56:49 09:00:54 21° 297° (WNW) 09:04:57 137.9125
AAUSAT CUBESAT 2 27 Jul 08:58:08 09:01:08 19° 94° (E) 09:04:06 437.432
CANX-2 27 Jul 08:59:46 09:03:59 65° 101° (E) 09:08:08 2200.000
DOVE 4 27 Jul 09:05:39 09:10:12 32° 290° (WNW) 09:14:51 437.250
Cosmos 2491 27 Jul 09:11:30 09:20:15 68° 81° (E) 09:28:58 435.465 / 435.565
Oscar 11 27 Jul 09:11:51 09:12:40 10° 90° (E) 09:13:30 145.826/435.025
CUTE 1.7 + AOD 2 27 Jul 09:13:12 09:17:26 82° 102° (ESE) 09:21:37 437.475
GOMX 1 27 Jul 09:13:53 09:16:30 14° 296° (WNW) 09:19:10 467.674
CINEMA 3 27 Jul 09:17:19 09:22:21 75° 284° (WNW) 09:27:19 145.822/145.860
PRISM 27 Jul 09:38:57 09:42:39 33° 262° (W) 09:46:21 437.425
RS-15 27 Jul 09:45:57 09:56:15 34° 323° (NW) 10:07:03 29.354- 29.394
ANTELSAT 27 Jul 09:47:41 09:51:16 22° 67° (ENE) 09:54:53 437.575/2403.000
SO-50 27 Jul 09:49:56 09:53:58 25° 312° (NW) 09:57:59 436.795
SEEDS 27 Jul 09:52:36 09:56:37 48° 286° (WNW) 10:00:37 437.485
FUNcube-1 27 Jul 10:02:31 10:06:43 39° 97° (E) 10:10:48 145.935
UWE-3 27 Jul 10:02:38 10:07:14 68° 100° (E) 10:11:42 435.000/436.395/437.385
ZACube-1 27 Jul 10:03:23 10:07:42 43° 98° (E) 10:11:51 437.345
COMPASS 1 27 Jul 10:04:23 10:08:24 50° 286° (WNW) 10:12:23 437.405
HO-68 27 Jul 10:14:49 10:21:34 45° 294° (WNW) 10:28:17 435.675
CUBEBUG 2 27 Jul 10:24:53 10:29:25 47° 287° (WNW) 10:33:49 437.445
Cosmos 2504 27 Jul 10:25:47 10:33:11 31° 84° (E) 10:40:35 435.465 / 435.565
M-CUBED/EXP-1 PRIME 27 Jul 10:26:02 10:29:41 22° 99° (E) 10:33:17 437.505
TIGRISAT 27 Jul 10:28:13 10:32:44 56° 74° (ENE) 10:37:20 435.000
AAUSAT CUBESAT 2 27 Jul 10:33:02 10:36:38 30° 289° (WNW) 10:40:13 437.432
YUBILEINY 27 Jul 10:37:44 10:46:31 82° 277° (W) 10:55:25 435.215
CANX-2 27 Jul 10:38:28 10:39:15 10° 297° (WNW) 10:40:02 2200.000
QB50P1 27 Jul 10:43:53 10:45:48 13° 64° (ENE) 10:47:43 145.935-145.965
UNISAT 6 27 Jul 10:44:30 10:49:07 89° 77° (ENE) 10:53:50 437.425
Oscar 11 27 Jul 10:44:55 10:49:11 61° 285° (WNW) 10:53:24 145.826/435.025
POPSAT HIP 1 27 Jul 10:49:48 10:52:11 15° 65° (ENE) 10:54:35 437.405
AUBIESAT-1 27 Jul 10:51:42 10:55:54 33° 102° (ESE) 11:00:03 437.475
DELFI C3 27 Jul 10:55:03 10:59:00 76° 102° (ESE) 11:02:55 145.870
QB50P2 27 Jul 11:09:26 11:12:57 26° 69° (ENE) 11:16:31 145.880/145.840
Cosmos 2491 27 Jul 11:09:43 11:16:14 24° 279° (W) 11:22:48 435.465 / 435.565
POLYITAN 1 27 Jul 11:12:01 11:15:36 27° 69° (ENE) 11:19:11 437.675
HUMSAT D 27 Jul 11:17:34 11:21:44 62° 101° (E) 11:25:49 437.325/437.525
ANTELSAT 27 Jul 11:23:31 11:27:44 35° 263° (W) 11:32:02 437.575/2403.000
FUNcube-1 27 Jul 11:39:34 11:42:38 18° 294° (WNW) 11:45:39 145.935
ZACube-1 27 Jul 11:40:41 11:43:35 17° 294° (WNW) 11:46:26 437.345
UWE-3 27 Jul 11:41:18 11:43:03 12° 297° (WNW) 11:44:47 435.000/436.395/437.385
NANOSAT C BR1 27 Jul 11:54:20 11:58:32 77° 77° (ENE) 12:02:49 145.865
ESTCUBE 1 27 Jul 11:55:41 11:59:27 26° 96° (E) 12:03:12 437.505/2401.250
DUCHIFAT 1 27 Jul 11:58:34 12:02:46 80° 78° (ENE) 12:07:02 145.980
M-CUBED/EXP-1 PRIME 27 Jul 11:59:52 12:04:13 39° 294° (WNW) 12:08:35 437.505
RS-15 27 Jul 12:06:14 12:14:10 19° 358° (N) 12:22:15 29.354- 29.394
TIGRISAT 27 Jul 12:07:29 12:09:45 14° 269° (W) 12:12:04 435.000
VELOX 1 27 Jul 12:12:10 12:15:39 22° 95° (E) 12:19:07 145.980
CUBEBUG 1 27 Jul 12:12:54 12:16:37 26° 96° (E) 12:20:20 437.445
BUGSAT 1 27 Jul 12:12:59 12:16:54 48° 73° (ENE) 12:20:54 437.445
50 SAT 27 Jul 12:16:40 12:19:35 23° 96° (E) 12:22:28 437.505
QB50P1 27 Jul 12:16:56 12:21:04 54° 260° (W) 12:25:16 145.935-145.965
Cosmos 2504 27 Jul 12:17:25 12:26:03 57° 282° (WNW) 12:34:46 435.465 / 435.565
POPSAT HIP 1 27 Jul 12:23:29 12:27:33 46° 261° (W) 12:31:41 437.405
AUBIESAT-1 27 Jul 12:26:20 12:30:10 26° 297° (WNW) 12:33:57 437.475
YUBILEINY 27 Jul 12:39:53 12:44:48 16° 298° (WNW) 12:49:45 435.215
AIST 1 27 Jul 12:40:43 12:41:02 10° 84° (E) 12:41:20
JAS-2 27 Jul 12:44:15 12:50:23 78° 75° (ENE) 12:55:54 435.910
QB50P2 27 Jul 12:45:11 12:48:40 25° 264° (W) 12:52:12 145.880/145.840
POLYITAN 1 27 Jul 12:47:51 12:51:19 24° 265° (W) 12:54:50 437.675
Gurwin Techsat 1B 27 Jul 12:52:10 12:53:41 11° 59° (ENE) 12:55:12 435.225
DX 1 27 Jul 12:55:39 12:59:53 48° 100° (E) 13:04:07 434.975-435.025
HUMSAT D 27 Jul 12:55:41 12:56:47 11° 297° (WNW) 12:57:53 437.325/437.525
AISAT 27 Jul 12:56:16 13:00:44 74° 102° (ESE) 13:05:11 437.250
Oscar 19 27 Jul 13:06:37 13:11:10 33° 69° (ENE) 13:15:44 437.125/150
UKube-1 27 Jul 13:09:02 13:13:17 54° 101° (E) 13:17:31 .
ESTCUBE 1 27 Jul 13:32:25 13:36:11 27° 291° (WNW) 13:39:57 437.505/2401.250
SPROUT 27 Jul 13:42:03 13:46:23 74° 284° (WNW) 13:50:40 437.525
AO-85 27 Jul 13:43:02 13:48:04 41° 115° (ESE) 13:52:57 145.980
VELOX 1 27 Jul 13:48:11 13:52:06 31° 290° (WNW) 13:56:02 145.980
CUBEBUG 1 27 Jul 13:49:09 13:52:48 26° 291° (WNW) 13:56:27 437.445
50 SAT 27 Jul 13:50:27 13:53:04 19° 291° (WNW) 13:55:40 437.505
BUGSAT 1 27 Jul 13:50:55 13:52:33 12° 269° (W) 13:54:12 437.445
AO-7 27 Jul 14:03:03 14:08:18 19° 51° (NE) 14:13:32 29.400- 29.500
AIST 1 27 Jul 14:13:51 14:18:02 57° 280° (W) 14:22:14
Cosmos 2504 27 Jul 14:20:58 14:21:31 10° 303° (WNW) 14:22:06 435.465 / 435.565
RS-15 27 Jul 14:21:57 14:32:28 31° 33° (NNE) 14:42:57 29.354- 29.394
Gurwin Techsat 1B 27 Jul 14:27:28 14:32:47 88° 80° (E) 14:38:09 435.225
DX 1 27 Jul 14:33:10 14:35:40 15° 295° (WNW) 14:38:09 434.975-435.025
JAS-2 27 Jul 14:33:22 14:35:51 13° 268° (W) 14:38:16 435.910
AISAT 27 Jul 14:35:40 14:36:34 11° 298° (WNW) 14:37:28 437.250
TISAT 1 27 Jul 14:36:45 14:41:02 79° 285° (WNW) 14:45:16 437.305
ITAMSAT 1 27 Jul 14:41:04 14:45:54 39° 70° (ENE) 14:50:44 435.822/435.867
SWISSCUBE 27 Jul 14:43:21 14:47:06 23° 95° (E) 14:50:51 437.505
Oscar 19 27 Jul 14:46:12 14:50:29 27° 264° (W) 14:54:48 437.125/150
UKube-1 27 Jul 14:46:44 14:48:51 13° 296° (WNW) 14:50:58 .
GONETS M04 27 Jul 14:47:47 14:54:47 28° 83° (E) 15:01:48
BEESAT 27 Jul 15:04:15 15:08:36 34° 97° (E) 15:12:54 436.000
CUSAT 1 27 Jul 15:09:17 15:12:20 65° 81° (E) 15:16:08 437.405
